FW1697 Weather Reports


time (UTC)temp
C
wind
direction
speed
KPH
gust
KPH
rain 1hr
cm
rain 24hr
cm
rain mn
cm
humidity
%
barometer
mb
20260508100206 12 196 8.0 20.9 0.00 0.00 0.00 75 1016.8
20260508095706 12 209 8.0 16.1 0.00 0.00 0.00 75 1016.8
20260508095206 12 193 8.0 14.5 0.00 0.00 0.00 77 1016.8
20260508093706 12 202 11.3 19.3 0.00 0.00 0.00 76 1016.7
20260508093206 12 218 11.3 16.1 0.00 0.00 0.00 76 1016.6
20260508092706 12 225 9.7 19.3 0.00 0.00 0.00 77 1016.6
20260508092207 12 191 4.8 19.3 0.00 0.00 0.00 79 1016.6
20260508091706 12 201 8.0 16.1 0.00 0.00 0.00 79 1016.7
20260508091206 12 211 9.7 11.3 0.00 0.00 0.00 80 1016.7
20260508090706 12 205 9.7 16.1 0.00 0.00 0.00 80 1016.7
20260508090206 11 193 8.0 16.1 0.00 0.00 0.00 80 1016.7
20260508085206 11 197 9.7 12.9 0.00 0.00 0.00 82 1016.7
20260508084706 11 214 8.0 14.5 0.00 0.00 0.00 82 1016.7
20260508084206 11 223 9.7 11.3 0.00 0.00 0.00 82 1016.7
20260508083707 11 204 9.7 12.9 0.00 0.00 0.00 83 1016.7
20260508083206 11 207 9.7 12.9 0.00 0.00 0.00 84 1016.6
20260508082706 11 189 9.7 12.9 0.00 0.00 0.00 84 1016.6
20260508082205 10 208 9.7 14.5 0.00 0.00 0.00 84 1016.6
20260508081706 10 200 8.0 16.1 0.00 0.00 0.00 85 1016.6
20260508081205 10 191 8.0 16.1 0.00 0.00 0.00 86 1016.5
20260508080706 10 205 11.3 16.1 0.00 0.00 0.00 87 1016.5
20260508075706 10 223 9.7 14.5 0.00 0.00 0.00 88 1016.4
20260508075206 9 218 11.3 20.9 0.00 0.00 0.00 89 1016.4
20260508074706 9 211 11.3 20.9 0.00 0.00 0.00 89 1016.4
20260508074206 9 240 12.9 20.9 0.00 0.00 0.00 89 1016.3
20260508073206 9 236 12.9 19.3 0.00 0.00 0.00 89 1016.3
20260508072706 8 222 12.9 19.3 0.00 0.00 0.00 90 1016.3
20260508072206 8 211 14.5 19.3 0.00 0.00 0.00 90 1016.2
20260508071706 8 214 12.9 22.5 0.00 0.00 0.00 90 1016.2
20260508070706 8 219 12.9 20.9 0.00 0.00 0.00 90 1016.1
20260508070205 8 214 16.1 24.1 0.00 0.00 0.00 90 1016.1
20260508065706 8 222 12.9 20.9 0.00 0.00 0.00 90 1016.1
20260508065207 8 213 14.5 22.5 0.00 0.00 0.00 90 1016.1
20260508064706 8 218 11.3 19.3 0.00 0.00 0.00 90 1016.0
20260508063706 7 218 12.9 19.3 0.00 0.00 0.00 91 1016.0
20260508063206 7 217 8.0 14.5 0.00 0.00 0.00 91 1016.0
20260508062706 7 214 9.7 16.1 0.00 0.00 0.00 91 1015.9
20260508062206 7 237 11.3 19.3 0.00 0.00 0.00 91 1015.8
20260508060707 7 243 9.7 16.1 0.00 0.00 0.00 91 1015.6
20260508060206 7 232 11.3 19.3 0.00 0.00 0.00 91 1015.6
20260508055707 7 234 9.7 14.5 0.00 0.00 0.00 91 1015.6
20260508055208 7 240 9.7 16.1 0.00 0.00 0.00 91 1015.5
20260508054706 7 244 9.7 12.9 0.00 0.00 0.00 91 1015.6
20260508054206 7 228 11.3 16.1 0.00 0.00 0.00 91 1015.5
20260508053707 7 237 12.9 24.1 0.00 0.00 0.00 91 1015.5
20260508052705 7 250 14.5 24.1 0.00 0.00 0.00 91 1015.4
20260508052206 7 235 11.3 16.1 0.00 0.00 0.00 91 1015.4
20260508051706 7 236 12.9 19.3 0.00 0.00 0.00 91 1015.4
20260508051205 7 236 12.9 19.3 0.00 0.00 0.00 91 1015.4
20260508045705 6 235 9.7 19.3 0.00 0.00 0.00 91 1015.4
20260508045205 6 241 12.9 19.3 0.00 0.00 0.00 90 1015.4
20260508044705 6 239 14.5 20.9 0.00 0.00 0.00 90 1015.3
20260508044206 6 231 14.5 22.5 0.00 0.00 0.00 91 1015.3
20260508043205 6 233 12.9 19.3 0.00 0.00 0.00 91 1015.2
20260508042705 6 232 9.7 20.9 0.00 0.00 0.00 91 1015.2
20260508042205 6 235 8.0 19.3 0.00 0.00 0.00 91 1015.2
20260508041706 6 242 11.3 22.5 0.00 0.00 0.00 91 1015.2
20260508041205 6 222 12.9 19.3 0.00 0.00 0.00 91 1015.3
20260508040705 6 237 12.9 19.3 0.00 0.00 0.00 91 1015.2
20260508040206 6 221 11.3 16.1 0.00 0.00 0.00 90 1015.2
20260508035705 6 231 9.7 14.5 0.00 0.00 0.00 91 1015.2
20260508035206 6 225 8.0 14.5 0.00 0.00 0.00 90 1015.1
20260508034705 6 230 8.0 14.5 0.00 0.00 0.00 90 1015.1
20260508034206 6 227 8.0 14.5 0.00 0.00 0.00 90 1015.1
20260508033705 7 237 8.0 12.9 0.00 0.00 0.00 90 1015.1
20260508033206 7 233 9.7 14.5 0.00 0.00 0.00 90 1015.1
20260508032706 7 233 11.3 19.3 0.00 0.00 0.00 90 1015.1
20260508032205 7 226 12.9 19.3 0.00 0.00 0.00 90 1015.2
20260508031706 7 222 12.9 20.9 0.00 0.00 0.00 90 1015.2
20260508031205 7 254 11.3 20.9 0.00 0.00 0.00 90 1015.1
20260508030705 7 246 12.9 20.9 0.00 0.00 0.00 90 1015.0
20260508030206 7 255 11.3 24.1 0.00 0.00 0.00 90 1015.0
20260508025705 7 257 11.3 19.3 0.00 0.00 0.00 90 1015.0
20260508025206 7 245 9.7 19.3 0.00 0.00 0.00 90 1015.0
20260508023705 7 247 9.7 20.9 0.00 0.00 0.00 90 1015.0
20260508023206 7 255 11.3 14.5 0.00 0.00 0.00 90 1015.0
20260508022705 7 236 11.3 19.3 0.00 0.00 0.00 90 1015.0
20260508022205 7 223 11.3 19.3 0.00 0.00 0.00 90 1015.1
20260508021706 7 242 8.0 16.1 0.00 0.00 0.00 90 1015.1
20260508021205 7 222 8.0 16.1 0.00 0.00 0.00 90 1015.1
20260508020705 7 221 9.7 16.1 0.00 0.00 0.00 90 1015.0
20260508020205 7 219 9.7 12.9 0.00 0.00 0.00 90 1015.1
20260508015706 7 223 11.3 16.1 0.00 0.00 0.00 90 1015.0
20260508015206 7 228 11.3 16.1 0.00 0.00 0.00 89 1015.1
20260508014705 7 233 9.7 16.1 0.00 0.00 0.00 89 1015.1
20260508014205 7 223 8.0 12.9 0.00 0.00 0.00 89 1015.1
20260508013705 7 230 8.0 12.9 0.00 0.00 0.00 89 1015.1
20260508013205 7 221 11.3 20.9 0.00 0.00 0.00 89 1015.1
20260508012705 7 226 9.7 16.1 0.00 0.00 0.00 89 1015.1
20260508012206 7 226 8.0 12.9 0.00 0.00 0.00 89 1015.1
20260508011706 7 203 8.0 12.9 0.00 0.00 0.00 89 1015.0
20260508011205 7 214 8.0 12.9 0.00 0.00 0.00 89 1015.1
20260508010705 7 207 9.7 16.1 0.00 0.00 0.00 89 1015.1
20260508010205 7 210 8.0 16.1 0.00 0.00 0.00 90 1015.2
20260508005706 7 209 8.0 16.1 0.00 0.00 0.00 90 1015.2
20260508004705 7 188 11.3 16.1 0.00 0.00 0.00 90 1015.3
20260508004205 7 196 9.7 16.1 0.00 0.00 0.00 90 1015.3
20260508003706 7 196 8.0 11.3 0.00 0.00 0.00 90 1015.3
20260508003205 7 199 8.0 11.3 0.00 0.00 0.00 90 1015.4
20260508002705 7 199 8.0 9.7 0.00 0.00 0.00 90 1015.4
20260508002205 7 200 6.4 9.7 0.00 0.00 0.00 89 1015.5
20260508001705 7 219 8.0 16.1 0.00 0.00 0.00 89 1015.5
20260508001206 7 222 9.7 14.5 0.00 0.00 0.00 89 1015.5
20260508000705 7 218 11.3 20.9 0.00 0.00 0.00 89 1015.5
20260507235205 7 211 11.3 16.1 0.00 0.00 0.00 89 1015.5
20260507234705 7 197 11.3 19.3 0.00 0.00 0.00 88 1015.4
20260507234205 7 199 11.3 19.3 0.00 0.00 0.00 88 1015.4
20260507233705 7 208 11.3 19.3 0.00 0.00 0.00 88 1015.3
20260507233205 7 207 12.9 20.9 0.00 0.00 0.00 87 1015.3
20260507232705 7 207 11.3 19.3 0.00 0.00 0.00 87 1015.3
20260507231705 7 202 12.9 22.5 0.00 0.00 0.00 87 1015.3
20260507231206 7 200 16.1 24.1 0.00 0.00 0.00 87 1015.3
20260507230712 7 200 16.1 24.1 0.00 0.00 0.00 87 1015.3
20260507230205 7 191 16.1 22.5 0.00 0.00 0.00 86 1015.3
20260507225705 7 190 16.1 24.1 0.00 0.00 0.00 86 1015.3
20260507225205 7 190 16.1 25.7 0.00 0.00 0.00 86 1015.3
20260507224705 7 203 16.1 29.0 0.00 0.00 0.00 86 1015.3
20260507224205 7 202 19.3 29.0 0.00 0.00 0.00 86 1015.2
20260507223705 7 201 16.1 29.0 0.00 0.00 0.00 86 1015.3
20260507223205 7 209 14.5 24.1 0.00 0.00 0.00 86 1015.2
20260507222705 7 210 19.3 29.0 0.00 0.00 0.00 86 1015.2
20260507221705 8 192 19.3 29.0 0.00 0.00 0.00 85 1015.2
20260507221205 8 197 20.9 29.0 0.00 0.00 0.00 85 1015.2
20260507220705 8 202 19.3 35.4 0.00 0.00 0.00 85 1015.3
20260507220206 8 196 20.9 32.2 0.00 0.00 0.00 85 1015.2
20260507214205 8 182 19.3 25.7 0.00 0.00 0.00 84 1015.3
20260507213706 8 184 20.9 29.0 0.00 0.00 0.00 84 1015.3
20260507213206 8 194 19.3 27.4 0.00 0.00 0.00 84 1015.3
20260507212706 8 202 20.9 27.4 0.00 0.00 0.00 83 1015.3
20260507211206 8 175 20.9 32.2 0.00 0.00 0.00 82 1015.2
20260507210706 8 174 20.9 32.2 0.00 0.00 0.00 83 1015.2
20260507210206 8 173 20.9 29.0 0.00 0.00 0.00 83 1015.2
20260507205707 8 183 20.9 29.0 0.00 0.00 0.00 83 1015.2
20260507205207 8 176 20.9 32.2 0.00 0.00 0.00 83 1015.1
20260507204707 8 178 20.9 32.2 0.00 0.00 0.00 83 1015.1
20260507204208 8 167 14.5 24.1 0.00 0.00 0.00 83 1015.1
20260507203708 8 159 14.5 27.4 0.00 0.00 0.00 83 1015.1
20260507202707 8 162 16.1 27.4 0.00 0.00 0.00 82 1015.0
20260507202207 8 171 17.7 24.1 0.00 0.00 0.00 82 1015.1
20260507201708 8 171 14.5 24.1 0.00 0.00 0.00 82 1015.0
20260507200708 8 159 12.9 20.9 0.00 0.00 0.00 82 1014.9
20260507195207 9 160 16.1 24.1 0.00 0.00 0.00 81 1014.8
20260507194708 9 173 11.3 29.0 0.00 0.00 0.00 81 1014.7
20260507194206 9 166 14.5 29.0 0.00 0.00 0.00 81 1014.6
20260507193707 9 174 14.5 27.4 0.00 0.00 0.00 81 1014.6
20260507193207 9 173 11.3 27.4 0.00 0.00 0.00 81 1014.6
20260507192708 9 163 11.3 25.7 0.00 0.00 0.00 81 1014.6
20260507191707 9 164 9.7 25.7 0.00 0.00 0.00 81 1014.6
20260507185707 10 161 11.3 19.3 0.00 0.00 0.00 80 1014.5
20260507185207 10 160 9.7 19.3 0.00 0.00 0.00 79 1014.4
20260507184706 10 156 9.7 24.1 0.00 0.00 0.00 79 1014.4
20260507184206 10 168 14.5 27.4 0.00 0.00 0.00 79 1014.4
20260507183706 10 164 11.3 20.9 0.00 0.00 0.00 79 1014.4
20260507183208 10 153 9.7 16.1 0.00 0.00 0.00 79 1014.3
20260507182207 10 158 8.0 20.9 0.00 0.00 0.00 78 1014.3
20260507181707 10 154 8.0 12.9 0.00 0.00 0.00 77 1014.3
20260507181207 10 158 9.7 16.1 0.00 0.00 0.00 76 1014.3
20260507180707 10 163 9.7 22.5 0.00 0.00 0.00 75 1014.3
20260507175708 11 180 12.9 20.9 0.00 0.00 0.00 73 1014.4
20260507175206 11 171 11.3 19.3 0.00 0.00 0.00 72 1014.5
20260507174708 11 168 8.0 16.1 0.00 0.00 0.00 73 1014.5
20260507174208 11 161 4.8 12.9 0.00 0.00 0.00 73 1014.5
20260507172707 11 170 9.7 19.3 0.00 0.00 0.00 67 1014.5
20260507172207 11 186 12.9 19.3 0.00 0.00 0.00 66 1014.5
20260507171707 11 186 9.7 19.3 0.00 0.00 0.00 66 1014.5
20260507171207 11 195 12.9 19.3 0.00 0.00 0.00 65 1014.6
20260507165707 11 198 9.7 19.3 0.00 0.00 0.00 66 1014.7
20260507165208 11 206 9.7 20.9 0.00 0.00 0.00 66 1014.7
20260507164708 11 192 9.7 19.3 0.00 0.00 0.00 66 1014.8
20260507164206 11 198 14.5 19.3 0.00 0.00 0.00 66 1014.8
20260507163707 11 200 11.3 19.3 0.00 0.00 0.00 66 1014.7
20260507163208 11 209 11.3 16.1 0.00 0.00 0.00 66 1014.7
20260507162707 11 194 8.0 14.5 0.00 0.00 0.00 66 1014.7
20260507162208 11 210 11.3 19.3 0.00 0.00 0.00 65 1014.7
20260507161707 11 197 11.3 19.3 0.00 0.00 0.00 65 1014.7
20260507161206 11 193 8.0 16.1 0.00 0.00 0.00 67 1014.7
20260507160707 11 201 9.7 16.1 0.00 0.00 0.00 66 1014.8
20260507160207 11 202 11.3 27.4 0.00 0.00 0.00 66 1014.8
20260507154707 11 197 14.5 24.1 0.00 0.00 0.00 66 1014.8
20260507153707 11 191 9.7 19.3 0.00 0.00 0.00 67 1014.9
20260507153207 11 207 14.5 20.9 0.00 0.00 0.00 67 1014.9
20260507152706 11 191 16.1 20.9 0.00 0.00 0.00 67 1014.9
20260507152207 11 208 12.9 19.3 0.00 0.00 0.00 68 1015.0
20260507151706 11 195 12.9 19.3 0.00 0.00 0.00 68 1014.9
20260507151207 11 207 16.1 24.1 0.00 0.00 0.00 69 1015.0
20260507150708 10 214 11.3 24.1 0.00 0.00 0.00 70 1015.0
20260507150207 10 191 16.1 24.1 0.00 0.00 0.00 69 1015.0
20260507145707 10 219 12.9 25.7 0.00 0.00 0.00 68 1015.0
20260507145206 10 199 22.5 27.4 0.00 0.00 0.00 68 1014.9
20260507144706 10 201 11.3 22.5 0.00 0.00 0.00 70 1014.9
20260507143706 10 209 16.1 27.4 0.00 0.00 0.00 70 1014.9
20260507143206 10 203 20.9 35.4 0.00 0.00 0.00 69 1015.0
20260507142706 10 199 16.1 25.7 0.00 0.00 0.00 70 1015.0
20260507142207 10 212 16.1 24.1 0.00 0.00 0.00 69 1015.0
20260507141707 10 204 14.5 22.5 0.00 0.00 0.00 70 1015.1
20260507141207 10 206 19.3 29.0 0.00 0.00 0.00 69 1015.1
20260507140707 10 229 16.1 29.0 0.00 0.00 0.00 68 1015.1
20260507140206 10 212 16.1 24.1 0.00 0.00 0.00 69 1015.2
20260507135707 10 200 19.3 29.0 0.00 0.00 0.00 69 1015.3
20260507135207 10 200 17.7 27.4 0.00 0.00 0.00 70 1015.3
20260507134207 10 219 11.3 25.7 0.00 0.00 0.00 69 1015.3
20260507133707 10 224 16.1 33.8 0.00 0.00 0.00 68 1015.3
20260507133207 10 204 14.5 32.2 0.00 0.00 0.00 70 1015.3
20260507132707 10 221 16.1 35.4 0.00 0.00 0.00 68 1015.3
20260507131207 11 202 17.7 25.7 0.00 0.00 0.00 69 1015.3
20260507130707 11 225 20.9 32.2 0.00 0.00 0.00 69 1015.3
20260507130207 11 209 17.7 29.0 0.00 0.00 0.00 70 1015.3
20260507125707 11 209 19.3 32.2 0.00 0.00 0.00 69 1015.3
20260507125207 11 190 17.7 32.2 0.00 0.00 0.00 70 1015.3
20260507124707 11 190 22.5 32.2 0.00 0.00 0.00 69 1015.3
20260507124207 11 206 16.1 27.4 0.00 0.00 0.00 71 1015.2
20260507123707 11 196 22.5 35.4 0.00 0.00 0.00 70 1015.2
20260507123207 11 206 20.9 33.8 0.00 0.00 0.00 71 1015.2
20260507122707 11 207 22.5 38.6 0.00 0.00 0.00 70 1015.2
20260507122207 11 226 19.3 32.2 0.00 0.00 0.00 70 1015.2
20260507121707 11 200 19.3 32.2 0.00 0.00 0.00 71 1015.2
20260507120707 11 203 19.3 33.8 0.00 0.00 0.00 72 1015.2
20260507120207 11 188 25.7 33.8 0.00 0.00 0.00 74 1015.3
20260507115707 10 204 17.7 25.7 0.00 0.00 0.00 74 1015.3
20260507115207 10 203 20.9 41.8 0.00 0.00 0.00 72 1015.3
20260507114707 10 201 22.5 38.6 0.00 0.00 0.00 73 1015.2
20260507114206 10 207 20.9 33.8 0.00 0.00 0.00 73 1015.2
20260507113707 10 194 24.1 35.4 0.00 0.00 0.00 74 1015.3
20260507113207 10 195 20.9 32.2 0.00 0.00 0.00 74 1015.3
20260507112707 10 190 22.5 35.4 0.00 0.00 0.00 75 1015.4
20260507112207 10 196 17.7 29.0 0.00 0.00 0.00 75 1015.4
20260507111707 10 205 14.5 25.7 0.00 0.00 0.00 76 1015.5
20260507111206 9 217 16.1 27.4 0.00 0.00 0.00 78 1015.6
20260507110707 9 222 19.3 32.2 0.00 0.00 0.00 78 1015.6
20260507110207 9 198 20.9 32.2 0.00 0.00 0.00 77 1015.6
20260507105707 9 213 17.7 32.2 0.00 0.00 0.00 79 1015.6
20260507105207 8 208 14.5 24.1 0.00 0.00 0.00 79 1015.6
20260507104706 8 201 16.1 27.4 0.00 0.00 0.00 79 1015.6
20260507104207 8 196 16.1 25.7 0.00 0.00 0.00 80 1015.7
20260507103207 8 201 19.3 27.4 0.00 0.00 0.00 79 1015.7
20260507102207 8 196 17.7 27.4 0.00 0.00 0.00 80 1015.8
20260507101707 8 192 12.9 25.7 0.00 0.00 0.00 80 1015.8
20260507101206 8 203 17.7 25.7 0.00 0.00 0.00 80 1015.9